This is the latest recevied weather packets stored in our database for station/object I4GOS-3. If no packets are shown the sender has not sent any weather packets the latest 1 day(s).
| Time | Temp. | Humidity | Pressure | Rain* | Wind** | Luminosity | Snow |
|---|---|---|---|---|---|---|---|
| 1778090379 | 21.11° C | 62% | 1009.8 hPa | 0 mm | - | - | - |
| 1778089178 | 21.11° C | 61% | 1009.7 hPa | 0 mm | - | - | - |
| 1778088277 | 21.67° C | 60% | 1009.6 hPa | 0 mm | - | - | - |
| 1778087977 | 21.67° C | 59% | 1009.6 hPa | 0 mm | - | - | - |
| 1778086776 | 21.67° C | 58% | 1009.4 hPa | 0 mm | - | - | - |
| 1778086476 | 21.67° C | 58% | 1009.4 hPa | 0 mm | - | - | - |
| 1778085575 | 22.22° C | 57% | 1009.5 hPa | 0 mm | - | - | - |
| 1778085275 | 22.22° C | 56% | 1009.4 hPa | 0 mm | - | - | - |
| 1778084074 | 22.78° C | 56% | 1009.5 hPa | 0 mm | - | - | - |
| 1778082873 | 22.78° C | 56% | 1009.6 hPa | 0 mm | - | - | - |
| 1778081672 | 23.33° C | 53% | 1009.4 hPa | 0 mm | - | - | - |
| 1778081372 | 23.33° C | 54% | 1009.4 hPa | 0 mm | - | - | - |
| 1778080171 | 22.78° C | 57% | 1009.4 hPa | 0 mm | - | - | - |
| 1778079270 | 22.78° C | 56% | 1009.3 hPa | 0 mm | - | - | - |
| 1778078670 | 22.78° C | 56% | 1009.3 hPa | 0 mm | - | - | - |
| 1778077469 | 23.33° C | 54% | 1009.3 hPa | 0 mm | - | - | - |
| 1778075067 | 22.78° C | 55% | 1009.8 hPa | 0 mm | - | - | - |
| 1778073866 | 22.78° C | 53% | 1010.1 hPa | 0 mm | - | - | - |
| 1778073566 | 22.78° C | 53% | 1010.2 hPa | 0 mm | - | - | - |
| 1778072365 | 22.22° C | 53% | 1010.4 hPa | 0 mm | - | - | - |
| 1778071464 | 22.22° C | 54% | 1010.6 hPa | 0 mm | - | - | - |
| 1778070864 | 22.22° C | 55% | 1010.5 hPa | 0 mm | - | - | - |
| 1778069962 | 22.22° C | 55% | 1010.5 hPa | 0 mm | - | - | - |
| 1778069662 | 22.22° C | 55% | 1010.5 hPa | 0 mm | - | - | - |
| 1778068761 | 22.22° C | 55% | 1010.6 hPa | 0 mm | - | - | - |
* Rain latest hour (hover to see other rain measurements)
** Current wind speed in m/s (hover to see current wind gust speed)